| time (UTC) | temp C | wind direction | speed KPH | gust KPH | rain 1hr cm | rain 24hr cm | rain mn cm | humidity % | barometer mb |
| 20260507141526 | 16 | 227 | 0.0 | 8.0 | 0.08 | 0.08 | 0.08 | 87 | 1008.4 |
| 20260507140026 | 16 | 209 | 6.4 | 17.7 | 0.05 | 0.05 | 0.05 | 87 | 1008.6 |
| 20260507134520 | 16 | 205 | 9.7 | 24.1 | 0.03 | 0.03 | 0.03 | 85 | 1008.9 |
| 20260507133020 | 18 | 159 | 12.9 | 17.7 | 0.00 | 0.00 | 0.00 | 79 | 1009.1 |
| 20260507131518 | 18 | 117 | 11.3 | 22.5 | 0.00 | 0.00 | 0.00 | 77 | 1008.9 |
| 20260507130017 | 19 | 134 | 14.5 | 22.5 | 0.00 | 0.00 | 0.00 | 72 | 1009.2 |
| 20260507124555 | 19 | 129 | 14.5 | 25.7 | 0.00 | 0.00 | 0.00 | 70 | 1009.1 |
| 20260507123047 | 20 | 115 | 14.5 | 27.4 | 0.00 | 0.00 | 0.00 | 71 | 1009.1 |
| 20260507121549 | 20 | 101 | 17.7 | 25.7 | 0.00 | 0.00 | 0.00 | 69 | 1009.3 |
| 20260507120043 | 20 | 124 | 14.5 | 25.7 | 0.00 | 0.00 | 0.00 | 69 | 1009.6 |
| 20260507114541 | 20 | 110 | 17.7 | 25.7 | 0.00 | 0.00 | 0.00 | 69 | 1009.6 |
| 20260507113045 | 19 | 76 | 16.1 | 25.7 | 0.00 | 0.00 | 0.00 | 72 | 1009.6 |
| 20260507111516 | 19 | 104 | 16.1 | 25.7 | 0.00 | 0.00 | 0.00 | 72 | 1009.8 |
| 20260507110008 | 20 | 98 | 14.5 | 25.7 | 0.00 | 0.00 | 0.00 | 72 | 1009.7 |
| 20260507104606 | 20 | 95 | 20.9 | 29.0 | 0.00 | 0.00 | 0.00 | 71 | 1009.8 |
| 20260507103046 | 20 | 96 | 16.1 | 27.4 | 0.00 | 0.00 | 0.00 | 72 | 1009.9 |
| 20260507101530 | 19 | 105 | 17.7 | 33.8 | 0.00 | 0.00 | 0.00 | 74 | 1009.9 |
| 20260507100109 | 19 | 95 | 17.7 | 25.7 | 0.00 | 0.00 | 0.00 | 74 | 1009.7 |
| 20260507094559 | 19 | 115 | 12.9 | 29.0 | 0.00 | 0.00 | 0.00 | 74 | 1010.0 |
| 20260507093053 | 19 | 143 | 12.9 | 25.7 | 0.00 | 0.00 | 0.00 | 73 | 1010.1 |
| 20260507091551 | 19 | 95 | 9.7 | 22.5 | 0.00 | 0.00 | 0.00 | 73 | 1010.1 |
| 20260507090056 | 19 | 107 | 16.1 | 25.7 | 0.00 | 0.00 | 0.00 | 73 | 1010.0 |
| 20260507084549 | 19 | 75 | 14.5 | 22.5 | 0.00 | 0.00 | 0.00 | 74 | 1009.9 |
| 20260507083044 | 18 | 96 | 14.5 | 24.1 | 0.00 | 0.00 | 0.00 | 74 | 1010.0 |
| 20260507081539 | 18 | 88 | 14.5 | 24.1 | 0.00 | 0.00 | 0.00 | 74 | 1009.8 |
| 20260507080042 | 18 | 112 | 12.9 | 17.7 | 0.00 | 0.00 | 0.00 | 75 | 1010.0 |
| 20260507074533 | 18 | 82 | 11.3 | 17.7 | 0.00 | 0.00 | 0.00 | 77 | 1009.8 |
| 20260507073028 | 17 | 119 | 4.8 | 12.9 | 0.00 | 0.00 | 0.00 | 78 | 1009.7 |
| 20260507071525 | 17 | 79 | 0.0 | 9.7 | 0.00 | 0.00 | 0.00 | 80 | 1009.5 |
| 20260507070020 | 16 | 47 | 0.0 | 6.4 | 0.00 | 0.00 | 0.00 | 81 | 1009.4 |
| 20260507064516 | 16 | 163 | 0.0 | 3.2 | 0.00 | 0.00 | 0.00 | 82 | 1009.3 |
| 20260507063047 | 15 | 163 | 0.0 | 1.6 | 0.00 | 0.00 | 0.00 | 85 | 1009.3 |
| 20260507061543 | 14 | 163 | 1.6 | 4.8 | 0.00 | 0.00 | 0.00 | 88 | 1009.2 |
| 20260507060037 | 13 | 163 | 4.8 | 8.0 | 0.00 | 0.00 | 0.00 | 88 | 1009.1 |
| 20260507054554 | 13 | 161 | 3.2 | 6.4 | 0.00 | 0.00 | 0.00 | 87 | 1009.1 |
| 20260507053035 | 13 | 161 | 0.0 | 1.6 | 0.00 | 0.00 | 0.00 | 87 | 1009.2 |
| 20260507051533 | 14 | 161 | 0.0 | 1.6 | 0.00 | 0.00 | 0.00 | 87 | 1009.0 |
| 20260507050007 | 13 | 161 | 1.6 | 8.0 | 0.00 | 0.00 | 0.00 | 87 | 1009.1 |
| 20260507044501 | 13 | 202 | 3.2 | 6.4 | 0.00 | 0.00 | 0.00 | 87 | 1008.9 |
| 20260507043057 | 13 | 215 | 0.0 | 1.6 | 0.00 | 0.00 | 0.00 | 87 | 1008.8 |
| 20260507041603 | 13 | 215 | 1.6 | 4.8 | 0.00 | 0.00 | 0.00 | 87 | 1008.7 |
| 20260507040055 | 14 | 215 | 1.6 | 4.8 | 0.00 | 0.00 | 0.00 | 86 | 1008.8 |
| 20260507034553 | 14 | 85 | 1.6 | 4.8 | 0.00 | 0.00 | 0.00 | 87 | 1008.8 |
| 20260507033048 | 15 | 87 | 0.0 | 3.2 | 0.00 | 0.00 | 0.00 | 86 | 1008.8 |
| 20260507031546 | 15 | 87 | 0.0 | 0.0 | 0.00 | 0.00 | 0.00 | 86 | 1008.7 |
| 20260507030044 | 15 | 87 | 0.0 | 1.6 | 0.00 | 0.00 | 0.00 | 85 | 1008.7 |
| 20260507024545 | 15 | 87 | 1.6 | 4.8 | 0.00 | 0.00 | 0.00 | 85 | 1009.0 |
| 20260507023009 | 15 | 85 | 3.2 | 6.4 | 0.00 | 0.00 | 0.00 | 85 | 1008.8 |
| 20260507021506 | 15 | 107 | 3.2 | 9.7 | 0.00 | 0.00 | 0.00 | 85 | 1008.9 |
| 20260507020002 | 15 | 155 | 3.2 | 4.8 | 0.00 | 0.00 | 0.00 | 86 | 1009.3 |
| 20260507014623 | 15 | 155 | 3.2 | 4.8 | 0.00 | 0.00 | 0.00 | 85 | 1009.3 |
| 20260507013102 | 15 | 155 | 0.0 | 3.2 | 0.00 | 0.00 | 0.00 | 86 | 1009.4 |
| 20260507011605 | 15 | 155 | 3.2 | 4.8 | 0.00 | 0.00 | 0.00 | 86 | 1009.4 |
| 20260507010037 | 15 | 103 | 1.6 | 4.8 | 0.00 | 0.00 | 0.00 | 86 | 1009.3 |
| 20260507004528 | 15 | 95 | 0.0 | 0.0 | 0.00 | 0.00 | 0.00 | 86 | 1009.3 |
| 20260507003026 | 15 | 95 | 0.0 | 0.0 | 0.00 | 0.00 | 0.00 | 86 | 1009.4 |
| 20260507001531 | 16 | 95 | 0.0 | 0.0 | 0.00 | 0.00 | 0.00 | 87 | 1009.5 |
| 20260507000029 | 16 | 95 | 0.0 | 3.2 | 0.00 | 0.00 | 0.00 | 86 | 1009.6 |
| 20260506234522 | 16 | 95 | 0.0 | 3.2 | 0.00 | 0.00 | 0.00 | 86 | 1009.8 |
| 20260506233020 | 16 | 95 | 0.0 | 3.2 | 0.00 | 0.00 | 0.00 | 86 | 1010.0 |
| 20260506231521 | 16 | 95 | 1.6 | 3.2 | 0.00 | 0.00 | 0.00 | 87 | 1010.1 |
| 20260506230019 | 16 | 93 | 1.6 | 4.8 | 0.00 | 0.00 | 0.00 | 86 | 1010.0 |
| 20260506224519 | 16 | 91 | 0.0 | 1.6 | 0.00 | 0.00 | 0.00 | 86 | 1010.1 |
| 20260506223048 | 16 | 75 | 0.0 | 1.6 | 0.00 | 0.00 | 0.00 | 86 | 1009.9 |
| 20260506221556 | 16 | 75 | 0.0 | 1.6 | 0.00 | 0.00 | 0.00 | 87 | 1009.9 |
| 20260506220047 | 16 | 75 | 3.2 | 4.8 | 0.00 | 0.00 | 0.00 | 87 | 1009.9 |
| 20260506214544 | 16 | 76 | 3.2 | 6.4 | 0.00 | 0.00 | 0.00 | 87 | 1010.1 |
| 20260506213052 | 16 | 87 | 3.2 | 6.4 | 0.00 | 0.00 | 0.00 | 86 | 1010.2 |
| 20260506211551 | 16 | 101 | 0.0 | 0.0 | 0.00 | 0.00 | 0.00 | 86 | 1010.4 |
| 20260506210046 | 16 | 101 | 0.0 | 1.6 | 0.00 | 0.00 | 0.00 | 86 | 1010.4 |
| 20260506204539 | 16 | 101 | 1.6 | 3.2 | 0.00 | 0.00 | 0.00 | 85 | 1010.2 |
| 20260506203038 | 17 | 101 | 3.2 | 6.4 | 0.00 | 0.00 | 0.00 | 85 | 1010.2 |
| 20260506201540 | 17 | 95 | 3.2 | 8.0 | 0.00 | 0.00 | 0.00 | 85 | 1009.9 |
| 20260506200037 | 17 | 86 | 3.2 | 11.3 | 0.00 | 0.00 | 0.00 | 83 | 1009.8 |
| 20260506194534 | 17 | 91 | 4.8 | 9.7 | 0.00 | 0.00 | 0.00 | 82 | 1009.7 |
| 20260506193044 | 17 | 107 | 6.4 | 12.9 | 0.00 | 0.00 | 0.00 | 81 | 1009.4 |
| 20260506191532 | 17 | 115 | 8.0 | 16.1 | 0.00 | 0.00 | 0.00 | 81 | 1009.4 |
| 20260506190032 | 18 | 103 | 4.8 | 14.5 | 0.00 | 0.00 | 0.00 | 80 | 1009.2 |
| 20260506184604 | 18 | 139 | 14.5 | 20.9 | 0.00 | 0.00 | 0.00 | 78 | 1009.0 |
| 20260506183104 | 18 | 106 | 12.9 | 22.5 | 0.00 | 0.00 | 0.00 | 77 | 1008.8 |
| 20260506181657 | 18 | 103 | 14.5 | 24.1 | 0.00 | 0.00 | 0.00 | 76 | 1008.8 |
| 20260506180055 | 18 | 114 | 14.5 | 25.7 | 0.00 | 0.00 | 0.00 | 76 | 1008.8 |
| 20260506174554 | 18 | 92 | 9.7 | 22.5 | 0.00 | 0.00 | 0.00 | 75 | 1008.7 |
| 20260506173120 | 18 | 112 | 12.9 | 25.7 | 0.00 | 0.00 | 0.00 | 74 | 1008.6 |
| 20260506171554 | 19 | 125 | 11.3 | 22.5 | 0.00 | 0.00 | 0.00 | 74 | 1008.5 |
| 20260506170104 | 19 | 109 | 19.3 | 30.6 | 0.00 | 0.00 | 0.00 | 72 | 1008.7 |
| 20260506164549 | 19 | 126 | 14.5 | 29.0 | 0.00 | 0.00 | 0.00 | 72 | 1008.4 |
| 20260506163055 | 19 | 86 | 17.7 | 29.0 | 0.00 | 0.00 | 0.00 | 72 | 1008.3 |
| 20260506161547 | 19 | 128 | 17.7 | 27.4 | 0.00 | 0.00 | 0.00 | 70 | 1008.3 |
| 20260506160046 | 20 | 113 | 19.3 | 29.0 | 0.00 | 0.00 | 0.00 | 69 | 1008.5 |
| 20260506154603 | 20 | 107 | 19.3 | 30.6 | 0.00 | 0.00 | 0.00 | 70 | 1008.6 |
| 20260506153042 | 20 | 111 | 19.3 | 29.0 | 0.00 | 0.00 | 0.00 | 70 | 1008.4 |
| 20260506151538 | 20 | 114 | 16.1 | 30.6 | 0.00 | 0.00 | 0.00 | 70 | 1008.5 |
| 20260506150037 | 20 | 141 | 16.1 | 30.6 | 0.00 | 0.00 | 0.00 | 71 | 1008.6 |
| 20260506144542 | 20 | 130 | 20.9 | 32.2 | 0.00 | 0.00 | 0.00 | 72 | 1008.7 |
| 20260506143035 | 20 | 111 | 17.7 | 33.8 | 0.00 | 0.00 | 0.00 | 72 | 1008.9 |